FW7092 Weather Reports


Display with metric or nautical units.
time (UTC)temp
F
wind
direction
speed
MPH
gust
MPH
rain 1hr
in
rain 24hr
in
rain mn
in
humidity
%
barometer
mb
20260504020839 50 205 5.0 6.0 0.00 0.00 0.00 73 1013.9
20260504020336 50 211 4.0 5.0 0.00 0.00 0.00 74 1014.0
20260504015832 50 199 3.0 5.0 0.00 0.00 0.00 73 1013.9
20260504015328 50 212 3.0 6.0 0.00 0.00 0.00 73 1013.9
20260504014825 50 207 4.0 6.0 0.00 0.00 0.00 73 1013.8
20260504014321 50 204 4.0 5.0 0.00 0.00 0.00 73 1013.9
20260504013819 51 203 4.0 7.0 0.00 0.00 0.00 72 1014.0
20260504013316 50 212 5.0 6.0 0.00 0.00 0.00 73 1014.0
20260504012813 51 211 5.0 7.0 0.00 0.00 0.00 73 1014.0
20260504012311 51 210 6.0 6.0 0.00 0.00 0.00 73 1013.8
20260504011808 51 208 4.0 6.0 0.00 0.00 0.00 74 1013.9
20260504011304 51 206 4.0 6.0 0.00 0.00 0.00 73 1014.1
20260504010800 51 208 5.0 6.0 0.00 0.00 0.00 74 1014.0
20260504010256 51 217 4.0 7.0 0.00 0.00 0.00 74 1014.1
20260504005753 51 214 7.0 9.0 0.00 0.00 0.00 73 1014.0
20260504005250 51 216 7.0 8.0 0.00 0.00 0.00 73 1014.2
20260504004747 51 213 5.0 8.0 0.00 0.00 0.00 72 1014.3
20260504004244 51 212 7.0 10.0 0.00 0.00 0.00 71 1014.1
20260504003741 51 224 8.0 9.0 0.00 0.00 0.00 71 1014.3
20260504003238 51 221 5.0 8.0 0.00 0.00 0.00 71 1014.2
20260504002734 51 210 7.0 10.0 0.00 0.00 0.00 70 1014.0
20260504002231 52 217 10.0 11.0 0.00 0.00 0.00 69 1014.2
20260504001729 52 207 7.0 8.0 0.00 0.00 0.00 70 1014.2
20260504001226 52 235 7.0 13.0 0.00 0.00 0.00 69 1014.2
20260504000723 52 221 8.0 11.0 0.00 0.00 0.00 69 1014.3
20260504000219 52 207 11.0 14.0 0.00 0.00 0.00 68 1014.3
20260503235718 52 196 9.0 14.0 0.00 0.00 0.00 68 1014.5
20260503235215 52 239 9.0 10.0 0.00 0.00 0.00 69 1014.6
20260503234713 53 236 10.0 13.0 0.00 0.00 0.00 68 1014.7
20260503234210 53 221 13.0 18.0 0.00 0.00 0.00 67 1014.5
20260503233707 53 208 11.0 14.0 0.00 0.00 0.00 67 1014.7
20260503233203 53 233 9.0 15.0 0.00 0.00 0.00 68 1014.6
20260503232700 53 207 11.0 18.0 0.00 0.00 0.00 67 1014.5
20260503232157 53 214 12.0 16.0 0.00 0.00 0.00 67 1014.8
20260503231655 53 245 14.0 21.0 0.00 0.00 0.00 66 1014.7
20260503231151 54 250 14.0 21.0 0.00 0.00 0.00 66 1014.7
20260503230648 54 239 15.0 23.0 0.00 0.00 0.00 65 1014.4
20260503230145 56 238 17.0 24.0 0.00 0.00 0.00 62 1014.4
20260503225642 57 247 16.0 21.0 0.00 0.00 0.00 61 1014.4
20260503225142 56 254 14.0 21.0 0.00 0.00 0.00 61 1014.3
20260503224640 58 258 18.0 22.0 0.00 0.00 0.00 59 1014.3
20260503224138 59 259 17.0 23.0 0.00 0.00 0.00 57 1014.2
20260503223636 59 241 14.0 21.0 0.00 0.00 0.00 58 1014.1
20260503223131 59 237 19.0 25.0 0.00 0.00 0.00 56 1014.2
20260503222629 59 238 19.0 24.0 0.00 0.00 0.00 53 1014.1
20260503222126 61 220 12.0 17.0 0.00 0.00 0.00 49 1014.0
20260503221625 61 244 12.0 17.0 0.00 0.00 0.00 46 1014.0
20260503221122 61 238 14.0 21.0 0.00 0.00 0.00 46 1014.1
20260503220619 61 252 14.0 21.0 0.00 0.00 0.00 45 1014.1
20260503220115 60 246 15.0 20.0 0.00 0.00 0.00 46 1014.0
20260503215612 60 248 17.0 20.0 0.00 0.00 0.00 44 1013.9
20260503215109 61 223 15.0 21.0 0.00 0.00 0.00 45 1014.2
20260503214608 61 228 14.0 16.0 0.00 0.00 0.00 45 1014.0
20260503214103 61 241 14.0 21.0 0.00 0.00 0.00 45 1014.2
20260503213602 61 222 15.0 27.0 0.00 0.00 0.00 45 1014.1
20260503213058 60 212 17.0 20.0 0.00 0.00 0.00 45 1014.2
20260503212556 61 230 13.0 18.0 0.00 0.00 0.00 46 1014.2
20260503212053 60 237 13.0 21.0 0.00 0.00 0.00 44 1014.1
20260503211550 60 212 13.0 22.0 0.00 0.00 0.00 48 1014.3
20260503211045 60 204 13.0 22.0 0.00 0.00 0.00 46 1014.3
20260503210543 61 225 11.0 15.0 0.00 0.00 0.00 46 1014.1
20260503210038 62 228 17.0 21.0 0.00 0.00 0.00 43 1014.4
20260503205535 61 243 14.0 23.0 0.00 0.00 0.00 45 1014.1
20260503205032 62 214 21.0 25.0 0.00 0.00 0.00 42 1014.3
20260503204529 62 248 16.0 23.0 0.00 0.00 0.00 45 1014.4
20260503204026 61 215 17.0 18.0 0.00 0.00 0.00 43 1014.4
20260503203523 61 229 20.0 24.0 0.00 0.00 0.00 43 1014.6
20260503203020 62 222 17.0 25.0 0.00 0.00 0.00 44 1014.5
20260503202518 62 229 18.0 24.0 0.00 0.00 0.00 44 1014.6
20260503202015 62 218 14.0 22.0 0.00 0.00 0.00 44 1014.5
20260503201514 62 243 20.0 25.0 0.00 0.00 0.00 42 1014.7
20260503201010 62 230 18.0 22.0 0.00 0.00 0.00 43 1014.7
20260503200506 62 231 14.0 20.0 0.00 0.00 0.00 43 1014.6
20260503200003 62 230 14.0 20.0 0.00 0.00 0.00 43 1014.8
20260503195500 62 236 11.0 18.0 0.00 0.00 0.00 45 1014.7
20260503194957 61 221 16.0 23.0 0.00 0.00 0.00 44 1014.8
20260503194455 61 209 17.0 22.0 0.00 0.00 0.00 44 1014.8
20260503193949 61 233 16.0 23.0 0.00 0.00 0.00 44 1015.0
20260503193445 61 234 14.0 22.0 0.00 0.00 0.00 46 1015.1
20260503192941 61 237 18.0 24.0 0.00 0.00 0.00 44 1014.8
20260503192437 61 235 16.0 18.0 0.00 0.00 0.00 44 1015.2
20260503191933 61 239 14.0 20.0 0.00 0.00 0.00 45 1015.2
20260503191431 62 239 14.0 25.0 0.00 0.00 0.00 48 1015.4
20260503190927 62 217 17.0 21.0 0.00 0.00 0.00 47 1015.5
20260503190425 62 241 14.0 18.0 0.00 0.00 0.00 44 1015.4
20260503185921 62 220 19.0 22.0 0.00 0.00 0.00 45 1015.5
20260503185418 61 227 18.0 22.0 0.00 0.00 0.00 46 1015.5
20260503184917 61 211 18.0 22.0 0.00 0.00 0.00 45 1015.8
20260503184414 61 238 13.0 20.0 0.00 0.00 0.00 48 1016.0
20260503183910 61 225 19.0 23.0 0.00 0.00 0.00 44 1015.9
20260503183407 61 211 12.0 18.0 0.00 0.00 0.00 42 1015.9
20260503182904 61 232 13.0 22.0 0.00 0.00 0.00 48 1016.0
20260503182403 61 241 17.0 18.0 0.00 0.00 0.00 46 1016.2
20260503181859 62 255 13.0 18.0 0.00 0.00 0.00 46 1016.0
20260503181356 60 197 14.0 17.0 0.00 0.00 0.00 46 1016.3
20260503180853 60 244 14.0 20.0 0.00 0.00 0.00 46 1016.2
20260503180351 60 234 14.0 21.0 0.00 0.00 0.00 44 1016.4
20260503175847 62 246 15.0 22.0 0.00 0.00 0.00 46 1016.4
20260503175345 61 204 14.0 25.0 0.00 0.00 0.00 47 1016.3
20260503174840 60 230 13.0 22.0 0.00 0.00 0.00 47 1016.5
20260503174339 61 231 13.0 18.0 0.00 0.00 0.00 46 1016.5
20260503173834 61 248 14.0 22.0 0.00 0.00 0.00 47 1016.7
20260503173331 61 246 19.0 22.0 0.00 0.00 0.00 42 1016.6
20260503172827 61 192 12.0 18.0 0.00 0.00 0.00 46 1016.6
20260503172325 61 242 12.0 21.0 0.00 0.00 0.00 49 1016.8
20260503171821 60 252 17.0 23.0 0.00 0.00 0.00 46 1016.9
20260503171318 60 224 15.0 21.0 0.00 0.00 0.00 48 1016.8
20260503170815 61 244 14.0 18.0 0.00 0.00 0.00 49 1016.9
20260503170312 60 233 15.0 18.0 0.00 0.00 0.00 47 1016.9
20260503150704 55 242 12.0 14.0 0.00 0.00 0.00 56 1018.1
20260503150200 54 231 9.0 13.0 0.00 0.00 0.00 59 1018.2
20260503140124 50 231 13.0 21.0 0.00 0.00 0.00 62 1018.6
20260503131054 47 235 10.0 13.0 0.00 0.00 0.00 64 1018.8
20260503130551 47 231 9.0 14.0 0.00 0.00 0.00 66 1018.7
20260503110442 34 213 5.0 6.0 0.00 0.00 0.00 83 1018.3
20260503090333 33 216 2.0 2.0 0.00 0.00 0.00 85 1018.8
20260503081300 33 214 2.0 2.0 0.00 0.00 0.00 87 1018.9
20260503080756 33 217 0.0 1.0 0.00 0.00 0.00 86 1018.9
20260503080254 33 217 1.0 2.0 0.00 0.00 0.00 86 1018.8
20260503072730 33 214 1.0 1.0 0.00 0.00 0.00 85 1019.0
20260503072226 34 217 1.0 1.0 0.00 0.00 0.00 85 1018.9
20260503071723 34 215 1.0 2.0 0.00 0.00 0.00 85 1019.0
20260503071220 34 215 1.0 1.0 0.00 0.00 0.00 85 1019.1
20260503070717 34 214 1.0 1.0 0.00 0.00 0.00 84 1019.0
20260503070215 34 211 1.0 1.0 0.00 0.00 0.00 84 1019.1
20260503060139 35 217 1.0 1.0 0.00 0.00 0.00 83 1019.3
20260503054626 35 214 1.0 2.0 0.00 0.00 0.00 82 1019.4
20260503054123 35 216 1.0 1.0 0.00 0.00 0.00 83 1019.3
20260503053621 35 216 1.0 1.0 0.00 0.00 0.00 83 1019.3
20260503053120 35 212 1.0 2.0 0.00 0.00 0.00 83 1019.3
20260503052616 35 209 1.0 2.0 0.00 0.00 0.00 82 1019.5
20260503052112 36 209 1.0 1.0 0.00 0.00 0.00 81 1019.5
20260503051608 36 213 1.0 1.0 0.00 0.00 0.00 81 1019.5
20260503051106 36 215 1.0 1.0 0.00 0.00 0.00 81 1019.6
20260503050602 36 213 1.0 1.0 0.00 0.00 0.00 81 1019.6
20260503050059 37 212 1.0 2.0 0.00 0.00 0.00 81 1019.4
20260503045556 36 212 2.0 2.0 0.00 0.00 0.00 81 1019.5
20260503045053 37 217 2.0 2.0 0.00 0.00 0.00 80 1019.7
20260503044549 37 213 2.0 2.0 0.00 0.00 0.00 81 1019.5
20260503044047 37 213 1.0 2.0 0.00 0.00 0.00 81 1019.6
20260503043543 36 214 1.0 2.0 0.00 0.00 0.00 83 1019.4
20260503043040 36 214 1.0 1.0 0.00 0.00 0.00 83 1019.5
20260503042537 36 218 1.0 1.0 0.00 0.00 0.00 81 1019.6
20260503042033 37 215 1.0 2.0 0.00 0.00 0.00 80 1019.5
20260503041530 36 214 0.0 1.0 0.00 0.00 0.00 82 1019.5
20260503041028 36 217 1.0 1.0 0.00 0.00 0.00 82 1019.5
20260503040525 37 211 1.0 2.0 0.00 0.00 0.00 80 1019.6
20260503040022 38 214 2.0 2.0 0.00 0.00 0.00 77 1019.6
20260503035519 39 211 3.0 3.0 0.00 0.00 0.00 76 1019.7
20260503035017 38 207 3.0 3.0 0.00 0.00 0.00 77 1019.7
20260503034514 38 209 2.0 2.0 0.00 0.00 0.00 78 1019.7
20260503034010 40 210 2.0 2.0 0.00 0.00 0.00 76 1019.7
20260503033508 41 210 3.0 3.0 0.00 0.00 0.00 73 1019.6
20260503033006 41 208 2.0 2.0 0.00 0.00 0.00 74 1019.7
20260503032504 41 202 1.0 2.0 0.00 0.00 0.00 72 1019.7
20260503032002 41 204 1.0 1.0 0.00 0.00 0.00 72 1019.7
20260503031459 41 202 1.0 1.0 0.00 0.00 0.00 72 1019.7
20260503030955 41 202 1.0 1.0 0.00 0.00 0.00 75 1019.4
20260503030452 41 205 1.0 1.0 0.00 0.00 0.00 77 1019.7
20260503025949 41 202 1.0 2.0 0.00 0.00 0.00 77 1019.9
20260503025446 41 208 2.0 2.0 0.00 0.00 0.00 76 1019.8
20260503024943 42 211 2.0 2.0 0.00 0.00 0.00 77 1019.9
20260503024440 42 210 2.0 2.0 0.00 0.00 0.00 76 1019.7
20260503023937 42 212 2.0 2.0 0.00 0.00 0.00 79 1019.9
20260503023434 42 208 2.0 2.0 0.00 0.00 0.00 78 1019.7
20260503022931 43 206 1.0 1.0 0.00 0.00 0.00 78 1019.9
20260503022426 43 208 2.0 2.0 0.00 0.00 0.00 72 1019.9
20260503021922 44 208 1.0 2.0 0.00 0.00 0.00 68 1019.9
20260503021418 44 203 1.0 1.0 0.00 0.00 0.00 65 1019.9
20260503020916 44 204 1.0 2.0 0.00 0.00 0.00 66 1019.8